K9NZF-2 Weather Reports


time (UTC)temp
F
wind
direction
speed
knots
gust
knots
rain 1hr
in
rain 24hr
in
rain mn
in
humidity
%
barometer
mb
20190523160706 76 228 7.8 13.0 0.00 0.34 0.32 78
20190523160208 76 206 7.0 15.6 0.00 0.35 0.32 77
20190523155707 76 233 7.0 15.6 0.00 0.36 0.32 80
20190523154707 75 248 6.1 13.9 0.00 0.38 0.32 78
20190523151707 74 207 7.8 17.4 0.00 0.50 0.32 80
20190523151205 73 254 6.1 14.8 0.00 0.50 0.32 82
20190523150706 73 238 6.1 12.2 0.00 0.51 0.32 82
20190523150207 73 150 6.1 13.0 0.00 0.51 0.32 81
20190523143207 70 197 7.8 19.1 0.00 0.51 0.32 87
20190523142706 69 183 6.1 11.3 0.00 0.51 0.32 86
20190523142210 69 208 4.3 10.4 0.00 0.51 0.32 87
20190523141210 69 191 3.5 9.6 0.00 0.51 0.32 87
20190523134209 68 207 3.5 11.3 0.00 0.51 0.32 88
20190523133705 68 226 4.3 12.2 0.00 0.51 0.32 89
20190523133206 67 221 5.2 12.2 0.00 0.51 0.32 89
20190523132706 67 231 6.1 13.0 0.00 0.51 0.32 90
20190523131708 67 214 6.1 13.0 0.01 0.51 0.32 90
20190523130708 66 207 5.2 12.2 0.01 0.51 0.32 91
20190523125209 66 191 6.1 13.9 0.06 0.51 0.32 91
20190523124705 66 224 6.1 13.9 0.07 0.51 0.32 91
20190523123206 65 197 2.6 9.6 0.10 0.51 0.32 93
20190523122706 65 228 3.5 9.6 0.11 0.51 0.32 94
20190523121708 65 235 2.6 11.3 0.12 0.50 0.31 94 1017.8
20190523121205 65 268 4.3 11.3 0.13 0.50 0.31 94
20190523120209 65 191 3.5 11.3 0.12 0.48 0.29 93
20190523115707 65 195 2.6 10.4 0.12 0.47 0.28 93
20190523114208 65 205 2.6 10.4 0.12 0.42 0.23 93
20190523111205 65 275 0.9 4.3 0.09 0.37 0.18 93
20190523095205 72 259 5.2 12.2 0.00 0.19 0.00 90
20190523094705 72 216 4.3 12.2 0.00 0.19 0.00 90
20190523093706 72 188 4.3 14.8 0.00 0.19 0.00 90
20190523093205 72 191 5.2 14.8 0.00 0.19 0.00 90
20190523092208 72 166 6.1 12.2 0.00 0.19 0.00 91
20190523090706 71 220 6.1 11.3 0.00 0.19 0.00 92
20190523090205 71 200 6.1 12.2 0.00 0.19 0.00 92
20190523083708 71 214 2.6 10.4 0.00 0.19 0.00 94
20190523083206 70 192 3.5 10.4 0.00 0.19 0.00 95
20190523082206 70 203 3.5 7.0 0.00 0.19 0.00 96
20190523081211 69 206 2.6 6.1 0.00 0.19 0.00 96
20190523080706 69 146 2.6 6.1 0.00 0.19 0.00 96
20190523080205 69 156 0.9 6.1 0.00 0.19 0.00 97
20190523075705 69 198 1.7 6.1 0.00 0.19 0.00 97
20190523074205 68 167 0.9 5.2 0.00 0.19 0.00 97
20190523073205 68 184 0.9 4.3 0.00 0.19 0.00 97
20190523072205 68 167 0.9 5.2 0.00 0.19 0.00 97
20190523071711 68 159 0.9 5.2 0.00 0.19 0.00 97
20190523070206 68 140 0.0 4.3 0.00 0.19 0.00 97
20190523064705 68 169 1.7 5.2 0.00 0.19 0.00 97
20190523064206 68 168 0.9 5.2 0.00 0.19 0.00 97
20190523063208 68 205 1.7 6.1 0.00 0.19 0.00 97
20190523062706 68 131 2.6 6.1 0.00 0.19 0.00 97
20190523055727 68 161 2.6 7.0 0.00 0.19 0.00 97
20190523055207 68 161 3.5 7.0 0.00 0.19 0.00 97
20190523054705 68 139 3.5 7.0 0.00 0.19 0.00 97
20190523054206 68 190 4.3 7.0 0.00 0.19 0.00 96
20190523053706 67 179 3.5 7.0 0.00 0.19 0.00 96
20190523052206 67 150 4.3 7.8 0.00 0.19 0.00 96
20190523051705 67 152 4.3 7.8 0.00 0.19 0.00 96
20190523051213 67 160 3.5 6.1 0.00 0.19 0.00 96
20190523050706 67 207 2.6 6.1 0.00 0.19 0.00 97
20190523050209 67 188 1.7 6.1 0.00 0.19 0.00 97
20190523045705 67 164 2.6 6.1 0.00 0.19 0.00 97
20190523045206 67 191 2.6 6.1 0.00 0.19 0.00 97 1015.9
20190523044712 66 187 1.7 5.2 0.00 0.19 0.00 96 1015.9
20190523043706 66 194 2.6 5.2 0.00 0.19 0.00 96
20190523041709 66 186 2.6 6.1 0.00 0.19 0.00 95
20190523041208 66 192 2.6 7.0 0.00 0.19 0.00 95
20190523040207 67 181 1.7 7.0 0.00 0.19 0.19 96
20190523034208 67 141 0.9 6.1 0.00 0.19 0.19 96
20190523033712 66 172 0.9 6.1 0.00 0.19 0.19 96
20190523032208 65 173 0.0 1.7 0.00 0.19 0.19 96
20190523031706 65 195 0.0 0.9 0.00 0.19 0.19 95
20190523030709 65 213 0.0 0.0 0.00 0.19 0.19 94
20190523025708 66 150 0.0 2.6 0.00 0.19 0.19 94
20190523024707 66 125 0.9 4.3 0.00 0.19 0.19 94
20190523024207 66 127 1.7 4.3 0.00 0.19 0.19 94
20190523023217 66 128 0.9 4.3 0.00 0.19 0.19 94
20190523021204 66 137 0.0 0.9 0.00 0.19 0.19 93 1015.5
20190523020207 66 138 0.0 0.9 0.00 0.19 0.19 93
20190523015706 66 134 0.0 0.0 0.00 0.19 0.19 93
20190523015206 66 191 0.0 0.0 0.00 0.19 0.19 93
20190523014208 66 191 0.0 0.0 0.00 0.19 0.19 93
20190523012207 67 195 0.0 0.9 0.00 0.19 0.19 90
20190523011710 67 195 0.0 0.9 0.00 0.19 0.19 89
20190523004707 69 181 0.0 1.7 0.00 0.19 0.19 86
20190523004207 69 206 0.0 1.7 0.00 0.19 0.19 86
20190523002206 71 202 1.7 4.3 0.00 0.19 0.19 84
20190523001706 71 212 1.7 6.1 0.00 0.19 0.19 83
20190523000705 72 202 2.6 7.0 0.00 0.19 0.19 81 1015.3
20190523000205 72 201 3.5 6.1 0.00 0.19 0.19 80
20190522235707 72 196 2.6 7.8 0.00 0.19 0.19 80
20190522235207 73 208 2.6 7.8 0.00 0.19 0.19 79
20190522234712 73 198 2.6 7.8 0.00 0.19 0.19 79
20190522234207 74 200 2.6 6.1 0.00 0.19 0.19 77 1015.2
20190522233709 74 212 2.6 6.1 0.00 0.19 0.19 77
20190522233210 74 224 2.6 7.0 0.00 0.19 0.19 77 1015.1
20190522232206 74 201 4.3 8.7 0.00 0.19 0.19 77
20190522225705 75 226 3.5 8.7 0.00 0.19 0.19 76
20190522225212 75 191 3.5 8.7 0.00 0.19 0.19 78
20190522224705 75 205 4.3 7.8 0.00 0.19 0.19 75
20190522224205 75 199 4.3 7.8 0.00 0.19 0.19 77
20190522223706 75 179 5.2 10.4 0.00 0.19 0.19 77
20190522220706 74 199 3.5 7.8 0.00 0.21 0.19 80
20190522220205 74 200 4.3 11.3 0.00 0.21 0.19 79
20190522215705 74 230 5.2 13.0 0.00 0.21 0.19 79
20190522215207 73 141 6.1 13.0 0.00 0.21 0.19 80
20190522214705 74 194 4.3 12.2 0.00 0.21 0.19 80
20190522213205 74 185 5.2 13.0 0.00 0.21 0.19 81
20190522212706 73 184 6.1 13.0 0.00 0.21 0.19 80
20190522212205 73 172 5.2 13.0 0.00 0.21 0.19 81
20190522211705 73 201 4.3 8.7 0.00 0.21 0.19 81 1015.2
20190522211206 72 186 5.2 9.6 0.00 0.21 0.19 84
20190522210707 72 217 5.2 9.6 0.00 0.21 0.19 83
20190522210206 72 176 5.2 9.6 0.00 0.21 0.19 83 1015.2
20190522205706 72 188 4.3 9.6 0.00 0.21 0.19 82
20190522204205 71 197 5.2 9.6 0.00 0.21 0.19 82
20190522203705 71 203 5.2 9.6 0.00 0.21 0.19 82
20190522203207 71 191 5.2 9.6 0.00 0.21 0.19 83
20190522202707 71 190 5.2 9.6 0.00 0.21 0.19 83
20190522202206 71 212 5.2 10.4 0.00 0.21 0.19 82
20190522201706 71 200 5.2 10.4 0.00 0.21 0.19 83
20190522195205 72 188 6.1 12.2 0.00 0.21 0.19 83
20190522194206 72 203 7.0 12.2 0.00 0.21 0.19 82
20190522193708 72 198 6.1 10.4 0.00 0.21 0.19 84
20190522192710 71 169 4.3 8.7 0.00 0.21 0.19 85
20190522191709 71 197 4.3 7.8 0.00 0.21 0.19 85
20190522191210 70 203 4.3 10.4 0.00 0.21 0.19 84
20190522190710 70 212 5.2 10.4 0.00 0.21 0.19 84
20190522190215 70 208 6.1 10.4 0.00 0.21 0.19 84
20190522185714 70 189 6.1 10.4 0.00 0.21 0.19 84
20190522184205 69 198 4.3 9.6 0.00 0.21 0.19 85
20190522183706 69 213 4.3 9.6 0.00 0.21 0.19 85
20190522182214 68 218 5.2 12.2 0.00 0.21 0.19 85
20190522180706 68 169 7.0 11.3 0.00 0.21 0.19 86
20190522180216 68 166 7.0 11.3 0.00 0.21 0.19 87
20190522175707 68 163 6.1 13.0 0.00 0.21 0.19 87
20190522174213 67 162 6.1 13.9 0.00 0.21 0.19 89
20190522172725 65 180 6.1 11.3 0.00 0.21 0.19 91
20190522171208 63 163 3.5 7.8 0.01 0.21 0.19 94
20190522170708 63 178 2.6 7.8 0.02 0.21 0.19 93
20190522165707 62 149 3.5 11.3 0.04 0.21 0.19 94
20190522165208 62 183 2.6 11.3 0.05 0.21 0.19 94
20190522164707 62 146 1.7 7.0 0.05 0.21 0.19 94